Time,TemperatureF,DewpointF,PressureIn,WindDirection,WindDirectionDegrees,WindSpeedMPH,WindSpeedGustMPH,Humidity,HourlyPrecipIn,Conditions,Clouds,dailyrainin,SoftwareType,DateUTC
2013-03-07 12:21:00,55.0,36.2,29.89,NW,315,2.0,5.0,49,0.00,,---,0.00,VWS V14.01,2013-03-07 20:21:00,
2013-03-07 12:22:00,55.0,36.7,29.92,NW,315,2.0,5.0,50,0.00,,---,0.00,VWS V14.01,2013-03-07 20:22:00,
2013-03-07 12:27:00,54.9,36.1,29.91,NNW,343,3.0,5.0,49,0.00,,---,0.00,VWS V14.01,2013-03-07 20:27:00,
2013-03-07 12:32:00,54.7,36.9,29.94,NNW,347,3.0,3.0,51,0.00,,---,0.00,VWS V14.01,2013-03-07 20:32:00,
2013-03-07 12:37:00,54.7,35.9,29.88,NNW,347,1.0,4.0,49,0.00,,---,0.00,VWS V14.01,2013-03-07 20:37:00,
2013-03-07 12:42:00,54.8,36.0,29.91,NNW,346,1.0,4.0,49,0.00,,---,0.00,VWS V14.01,2013-03-07 20:42:00,
2013-03-07 12:47:00,54.6,35.8,29.90,NNW,345,5.0,5.0,49,0.00,,---,0.00,VWS V14.01,2013-03-07 20:47:00,
2013-03-07 12:52:00,54.5,35.8,29.88,NNW,344,2.0,5.0,49,0.00,,---,0.00,VWS V14.01,2013-03-07 20:52:00,
2013-03-07 12:58:00,54.5,36.3,29.90,NNW,344,0.0,5.0,50,0.00,,---,0.00,VWS V14.01,2013-03-07 20:58:00,
2013-03-07 13:03:00,54.5,36.3,29.90,NNW,344,0.0,4.0,50,0.00,,---,0.00,VWS V14.01,2013-03-07 21:03:00,
2013-03-07 13:08:00,54.6,35.8,29.88,NNW,344,2.0,4.0,49,0.00,,---,0.00,VWS V14.01,2013-03-07 21:08:00,
2013-03-07 13:13:00,54.7,36.4,29.88,NNW,344,1.0,4.0,50,0.00,,---,0.00,VWS V14.01,2013-03-07 21:13:00,
2013-03-07 13:18:00,54.7,36.4,29.88,NNW,346,1.0,4.0,50,0.00,,---,0.00,VWS V14.01,2013-03-07 21:18:00,
2013-03-07 13:23:00,54.7,36.4,29.88,NNW,345,2.0,5.0,50,0.00,,---,0.00,VWS V14.01,2013-03-07 21:23:00,
2013-03-07 13:28:00,54.7,36.4,29.90,NNW,346,4.0,5.0,50,0.00,,---,0.00,VWS V14.01,2013-03-07 21:28:00,
2013-03-07 13:33:00,54.9,37.6,29.88,NNW,346,0.0,2.0,52,0.00,,---,0.00,VWS V14.01,2013-03-07 21:33:00,
2013-03-07 13:38:00,54.9,36.6,29.89,North,357,0.0,5.0,50,0.00,,---,0.00,VWS V14.01,2013-03-07 21:38:00,
2013-03-07 13:43:00,55.1,37.3,29.88,North,0,0.0,5.0,51,0.00,,---,0.00,VWS V14.01,2013-03-07 21:43:00,
2013-03-07 13:49:00,54.9,36.1,29.87,North,0,1.0,5.0,49,0.00,,---,0.00,VWS V14.01,2013-03-07 21:49:00,
2013-03-07 13:54:00,54.7,37.4,29.87,North,0,2.0,5.0,52,0.00,,---,0.00,VWS V14.01,2013-03-07 21:54:00,
2013-03-07 13:59:00,55.0,37.2,29.88,North,0,0.0,5.0,51,0.00,,---,0.00,VWS V14.01,2013-03-07 21:59:00,
2013-03-07 14:04:00,55.0,38.2,29.89,North,359,1.0,3.0,53,0.00,,---,0.00,VWS V14.01,2013-03-07 22:04:00,
2013-03-07 14:09:00,55.1,38.3,29.86,North,0,1.0,6.0,53,0.00,,---,0.00,VWS V14.01,2013-03-07 22:09:00,
2013-03-07 14:14:00,55.1,37.8,29.85,North,11,1.0,7.0,52,0.00,,---,0.00,VWS V14.01,2013-03-07 22:14:00,
2013-03-07 14:19:00,55.2,38.4,29.86,NNE,31,1.0,7.0,53,0.00,,---,0.00,VWS V14.01,2013-03-07 22:19:00,
2013-03-07 14:24:00,55.4,38.6,29.87,NNE,32,2.0,7.0,53,0.00,,---,0.00,VWS V14.01,2013-03-07 22:24:00,
2013-03-07 14:29:00,55.5,38.7,29.89,NE,37,2.0,7.0,53,0.00,,---,0.00,VWS V14.01,2013-03-07 22:29:00,
2013-03-07 14:34:00,55.5,38.7,29.88,NE,38,1.0,7.0,53,0.00,,---,0.00,VWS V14.01,2013-03-07 22:34:00,
2013-03-07 14:39:00,55.7,38.4,29.88,NE,38,1.0,7.0,52,0.00,,---,0.00,VWS V14.01,2013-03-07 22:39:00,
2013-03-07 14:44:00,55.7,38.8,29.88,NE,38,0.0,7.0,53,0.00,,---,0.00,VWS V14.01,2013-03-07 22:44:00,
2013-03-07 14:49:00,55.8,38.5,29.85,NE,38,2.0,7.0,52,0.00,,---,0.00,VWS V14.01,2013-03-07 22:49:00,
2013-03-07 14:54:00,55.8,38.5,29.88,NE,45,2.0,7.0,52,0.00,,---,0.00,VWS V14.01,2013-03-07 22:54:00,
2013-03-07 14:59:00,55.8,38.9,29.86,NE,46,1.0,7.0,53,0.00,,---,0.00,VWS V14.01,2013-03-07 22:59:00,
2013-03-07 15:04:00,55.8,38.9,29.85,NE,46,1.0,5.0,53,0.00,,---,0.00,VWS V14.01,2013-03-07 23:04:00,
2013-03-07 15:09:00,56.0,38.6,29.88,NE,55,2.0,7.0,52,0.00,,---,0.00,VWS V14.01,2013-03-07 23:09:00,
2013-03-07 15:15:00,56.0,38.6,29.85,NE,55,3.0,7.0,52,0.00,,---,0.00,VWS V14.01,2013-03-07 23:15:00,
2013-03-07 15:20:00,55.9,38.5,29.86,ESE,110,4.0,9.0,52,0.00,,---,0.00,VWS V14.01,2013-03-07 23:20:00,
2013-03-07 15:25:00,56.0,38.2,29.87,ESE,118,2.0,9.0,51,0.00,,---,0.00,VWS V14.01,2013-03-07 23:25:00,
2013-03-07 15:30:00,55.9,38.0,29.85,ESE,118,2.0,2.0,51,0.00,,---,0.00,VWS V14.01,2013-03-07 23:30:00,
2013-03-07 15:35:00,56.0,38.6,29.85,ESE,115,5.0,10.0,52,0.00,,---,0.00,VWS V14.01,2013-03-07 23:35:00,
2013-03-07 15:40:00,56.0,38.6,29.86,ESE,114,4.0,10.0,52,0.00,,---,0.00,VWS V14.01,2013-03-07 23:40:00,
2013-03-07 15:45:00,55.8,38.9,29.85,ESE,106,3.0,10.0,53,0.00,,---,0.00,VWS V14.01,2013-03-07 23:45:00,
2013-03-07 15:50:00,55.9,39.0,29.87,ESE,108,3.0,10.0,53,0.00,,---,0.00,VWS V14.01,2013-03-07 23:50:00,
2013-03-07 15:55:00,55.7,38.8,29.89,ESE,108,1.0,10.0,53,0.00,,---,0.00,VWS V14.01,2013-03-07 23:55:00,
2013-03-07 16:00:00,55.6,38.8,29.88,ESE,108,8.0,8.0,53,0.00,,---,0.00,VWS V14.01,2013-03-08 00:00:00,
2013-03-07 16:05:00,55.5,38.7,29.85,ESE,119,5.0,8.0,53,0.00,,---,0.00,VWS V14.01,2013-03-08 00:05:00,
2013-03-07 16:10:00,55.4,39.0,29.89,ESE,119,4.0,8.0,54,0.00,,---,0.00,VWS V14.01,2013-03-08 00:10:00,
2013-03-07 16:15:00,55.0,38.7,29.85,ESE,119,2.0,8.0,54,0.00,,---,0.00,VWS V14.01,2013-03-08 00:15:00,
2013-03-07 16:20:00,55.0,39.2,29.84,ESE,119,4.0,8.0,55,0.00,,---,0.00,VWS V14.01,2013-03-08 00:20:00,
2013-03-07 16:25:00,54.7,38.9,29.86,ESE,120,3.0,8.0,55,0.00,,---,0.00,VWS V14.01,2013-03-08 00:25:00,
2013-03-07 16:30:00,54.5,38.7,29.86,ESE,120,4.0,4.0,55,0.00,,---,0.00,VWS V14.01,2013-03-08 00:30:00,
2013-03-07 16:35:00,54.3,39.0,29.83,ESE,120,3.0,7.0,56,0.00,,---,0.00,VWS V14.01,2013-03-08 00:35:00,
2013-03-07 16:41:00,54.2,38.9,29.85,ESE,119,0.0,7.0,56,0.00,,---,0.00,VWS V14.01,2013-03-08 00:41:00,
2013-03-07 16:46:00,54.2,38.4,29.85,ESE,119,2.0,8.0,55,0.00,,---,0.00,VWS V14.01,2013-03-08 00:46:00,
2013-03-07 16:51:00,54.1,38.8,29.86,ESE,120,2.0,8.0,56,0.00,,---,0.00,VWS V14.01,2013-03-08 00:51:00,
2013-03-07 16:56:00,54.1,38.8,29.86,ESE,119,4.0,8.0,56,0.00,,---,0.00,VWS V14.01,2013-03-08 00:56:00,
2013-03-07 17:01:00,53.9,38.6,29.86,ESE,119,2.0,6.0,56,0.00,,---,0.00,VWS V14.01,2013-03-08 01:01:00,
2013-03-07 17:06:00,53.9,38.6,29.84,ESE,119,1.0,6.0,56,0.00,,---,0.00,VWS V14.01,2013-03-08 01:06:00,
2013-03-07 17:11:00,53.7,40.2,29.86,ESE,119,0.0,6.0,60,0.00,,---,0.00,VWS V14.01,2013-03-08 01:11:00,
2013-03-07 17:16:00,53.8,41.9,29.85,ESE,119,0.0,6.0,64,0.00,,---,0.00,VWS V14.01,2013-03-08 01:16:00,
2013-03-07 17:21:00,53.6,42.1,29.83,ESE,119,2.0,6.0,65,0.00,,---,0.00,VWS V14.01,2013-03-08 01:21:00,
2013-03-07 17:26:00,53.4,42.3,29.88,ESE,119,2.0,6.0,66,0.00,,---,0.00,VWS V14.01,2013-03-08 01:26:00,
2013-03-07 17:32:00,53.0,41.6,29.85,ESE,119,0.0,0.0,65,0.00,,---,0.00,VWS V14.01,2013-03-08 01:32:00,
2013-03-07 17:37:00,52.9,42.3,29.84,ESE,119,1.0,1.0,67,0.00,,---,0.00,VWS V14.01,2013-03-08 01:37:00,
2013-03-07 17:42:00,52.7,41.7,29.85,ESE,119,0.0,2.0,66,0.00,,---,0.00,VWS V14.01,2013-03-08 01:42:00,
2013-03-07 17:47:00,52.5,42.3,29.84,ESE,119,0.0,2.0,68,0.00,,---,0.00,VWS V14.01,2013-03-08 01:47:00,
2013-03-07 17:52:00,52.5,42.3,29.86,ESE,119,0.0,2.0,68,0.00,,---,0.00,VWS V14.01,2013-03-08 01:52:00,
2013-03-07 17:57:00,52.2,42.0,29.86,ESE,119,0.0,2.0,68,0.00,,---,0.00,VWS V14.01,2013-03-08 01:57:00,
2013-03-07 18:02:00,52.1,42.2,29.85,ESE,119,0.0,0.0,69,0.00,,---,0.00,VWS V14.01,2013-03-08 02:02:00,
2013-03-07 18:07:00,52.0,41.8,29.84,ESE,119,0.0,0.0,68,0.00,,---,0.00,VWS V14.01,2013-03-08 02:07:00,
2013-03-07 18:12:00,51.8,41.2,29.85,ESE,119,0.0,0.0,67,0.00,,---,0.00,VWS V14.01,2013-03-08 02:12:00,
2013-03-07 18:17:00,51.7,41.5,29.87,ESE,119,0.0,0.0,68,0.00,,---,0.00,VWS V14.01,2013-03-08 02:17:00,
2013-03-07 18:22:00,51.6,41.4,29.84,ESE,119,0.0,0.0,68,0.00,,---,0.00,VWS V14.01,2013-03-08 02:22:00,
2013-03-07 18:27:00,51.5,40.5,29.84,ESE,119,0.0,1.0,66,0.00,,---,0.00,VWS V14.01,2013-03-08 02:27:00,
2013-03-07 18:32:00,51.4,40.0,29.85,ESE,119,0.0,0.0,65,0.00,,---,0.00,VWS V14.01,2013-03-08 02:32:00,
2013-03-07 18:37:00,51.2,39.8,29.86,ESE,119,0.0,0.0,65,0.00,,---,0.00,VWS V14.01,2013-03-08 02:37:00,
2013-03-07 18:42:00,51.2,39.5,29.84,ESE,119,0.0,2.0,64,0.00,,---,0.00,VWS V14.01,2013-03-08 02:42:00,
2013-03-07 18:47:00,51.1,39.4,29.86,ESE,119,0.0,2.0,64,0.00,,---,0.00,VWS V14.01,2013-03-08 02:47:00,
2013-03-07 18:52:00,51.1,39.4,29.87,ESE,119,0.0,2.0,64,0.00,,---,0.00,VWS V14.01,2013-03-08 02:52:00,
2013-03-07 18:57:00,51.1,38.5,29.86,ESE,119,0.0,2.0,62,0.00,,---,0.00,VWS V14.01,2013-03-08 02:57:00,
2013-03-07 19:02:00,51.1,38.5,29.84,ESE,119,1.0,1.0,62,0.00,,---,0.00,VWS V14.01,2013-03-08 03:02:00,
2013-03-07 19:08:00,51.1,39.4,29.83,ESE,119,0.0,3.0,64,0.00,,---,0.00,VWS V14.01,2013-03-08 03:08:00,
2013-03-07 19:13:00,51.1,39.0,29.85,ESE,119,1.0,3.0,63,0.00,,---,0.00,VWS V14.01,2013-03-08 03:13:00,
2013-03-07 19:18:00,51.1,38.5,29.86,ESE,119,2.0,3.0,62,0.00,,---,0.00,VWS V14.01,2013-03-08 03:18:00,
2013-03-07 19:23:00,51.1,38.5,29.89,ESE,119,1.0,3.0,62,0.00,,---,0.00,VWS V14.01,2013-03-08 03:23:00,
2013-03-07 19:28:00,51.1,39.0,29.86,ESE,119,3.0,5.0,63,0.00,,---,0.00,VWS V14.01,2013-03-08 03:28:00,
2013-03-07 19:33:00,50.9,38.8,29.85,ESE,119,0.0,3.0,63,0.00,,---,0.00,VWS V14.01,2013-03-08 03:33:00,
2013-03-07 19:38:00,50.9,40.0,29.85,ESE,119,1.0,4.0,66,0.00,,---,0.00,VWS V14.01,2013-03-08 03:38:00,
2013-03-07 19:43:00,50.8,38.7,29.86,ESE,113,1.0,4.0,63,0.00,,---,0.00,VWS V14.01,2013-03-08 03:43:00,
2013-03-07 19:48:00,50.8,39.1,29.86,ESE,113,0.0,4.0,64,0.00,,---,0.00,VWS V14.01,2013-03-08 03:48:00,
2013-03-07 19:53:00,50.8,39.5,29.84,ESE,112,5.0,6.0,65,0.00,,---,0.00,VWS V14.01,2013-03-08 03:53:00,
2013-03-07 19:58:00,50.8,40.2,29.84,ESE,112,0.0,8.0,67,0.00,,---,0.00,VWS V14.01,2013-03-08 03:58:00,
2013-03-07 20:03:00,50.5,41.5,29.88,East,81,3.0,6.0,71,0.00,,---,0.00,VWS V14.01,2013-03-08 04:03:00,
2013-03-07 20:08:00,50.3,42.0,29.86,North,359,0.0,6.0,73,0.01,,---,0.01,VWS V14.01,2013-03-08 04:08:00,
2013-03-07 20:13:00,49.8,42.2,29.87,North,0,1.0,6.0,75,0.01,,---,0.01,VWS V14.01,2013-03-08 04:13:00,
2013-03-07 20:18:00,49.4,42.2,29.88,North,359,2.0,6.0,76,0.01,,---,0.01,VWS V14.01,2013-03-08 04:18:00,
2013-03-07 20:23:00,48.9,41.3,29.88,North,358,2.0,6.0,75,0.01,,---,0.01,VWS V14.01,2013-03-08 04:23:00,
2013-03-07 20:28:00,48.8,41.6,29.84,North,358,1.0,6.0,76,0.01,,---,0.01,VWS V14.01,2013-03-08 04:28:00,
2013-03-07 20:33:00,48.7,40.8,29.85,NNW,348,2.0,7.0,74,0.01,,---,0.01,VWS V14.01,2013-03-08 04:33:00,
2013-03-07 20:39:00,48.6,41.4,29.86,NNW,348,1.0,7.0,76,0.01,,---,0.01,VWS V14.01,2013-03-08 04:39:00,
2013-03-07 20:44:00,48.5,41.6,29.87,NNW,348,2.0,7.0,77,0.01,,---,0.01,VWS V14.01,2013-03-08 04:44:00,
2013-03-07 20:49:00,48.4,41.9,29.85,NNW,348,0.0,7.0,78,0.01,,---,0.01,VWS V14.01,2013-03-08 04:49:00,
2013-03-07 20:54:00,48.4,41.9,29.88,NNW,348,4.0,7.0,78,0.01,,---,0.01,VWS V14.01,2013-03-08 04:54:00,
2013-03-07 20:59:00,48.4,41.9,29.87,NNW,348,1.0,7.0,78,0.01,,---,0.01,VWS V14.01,2013-03-08 04:59:00,
2013-03-07 21:00:00,48.4,41.5,29.87,NNW,348,0.0,7.0,77,0.01,,---,0.01,VWS V14.01,2013-03-08 05:00:00,
2013-03-07 21:01:00,48.2,41.7,29.86,NNW,348,0.0,3.0,78,0.01,,---,0.01,VWS V14.01,2013-03-08 05:01:00,
2013-03-07 21:06:00,48.2,42.0,29.87,NNW,348,1.0,3.0,79,0.01,,---,0.01,VWS V14.01,2013-03-08 05:06:00,
2013-03-07 21:11:00,48.1,42.2,29.85,NNW,348,1.0,3.0,80,0.01,,---,0.01,VWS V14.01,2013-03-08 05:11:00,
2013-03-07 21:16:00,48.0,41.8,29.84,NNW,348,0.0,3.0,79,0.01,,---,0.01,VWS V14.01,2013-03-08 05:16:00,
2013-03-07 21:21:00,48.1,42.2,29.86,NNW,348,2.0,3.0,80,0.01,,---,0.01,VWS V14.01,2013-03-08 05:21:00,
2013-03-07 21:26:00,48.1,42.2,29.88,NNW,348,2.0,3.0,80,0.01,,---,0.01,VWS V14.01,2013-03-08 05:26:00,
2013-03-07 21:31:00,48.1,42.5,29.88,NNW,348,3.0,3.0,81,0.00,,---,0.01,VWS V14.01,2013-03-08 05:31:00,
2013-03-07 21:37:00,48.0,42.5,29.88,NNW,348,0.0,3.0,81,0.00,,---,0.01,VWS V14.01,2013-03-08 05:37:00,
2013-03-07 21:42:00,47.9,42.7,29.88,NNW,348,0.0,3.0,82,0.01,,---,0.02,VWS V14.01,2013-03-08 05:42:00,
2013-03-07 21:47:00,47.8,42.6,29.86,NNW,348,0.0,4.0,82,0.01,,---,0.02,VWS V14.01,2013-03-08 05:47:00,
2013-03-07 21:52:00,47.7,42.5,29.85,NNW,348,1.0,4.0,82,0.01,,---,0.02,VWS V14.01,2013-03-08 05:52:00,
2013-03-07 21:57:00,47.7,42.8,29.87,NNW,348,1.0,4.0,83,0.01,,---,0.02,VWS V14.01,2013-03-08 05:57:00,
2013-03-07 22:02:00,47.6,42.7,29.84,NNW,348,2.0,3.0,83,0.01,,---,0.02,VWS V14.01,2013-03-08 06:02:00,
2013-03-07 22:07:00,47.6,42.7,29.88,NNW,348,1.0,3.0,83,0.01,,---,0.02,VWS V14.01,2013-03-08 06:07:00,
2013-03-07 22:12:00,47.6,42.7,29.87,NNW,348,2.0,3.0,83,0.01,,---,0.02,VWS V14.01,2013-03-08 06:12:00,
2013-03-07 22:17:00,47.5,42.9,29.87,NNW,348,1.0,3.0,84,0.01,,---,0.02,VWS V14.01,2013-03-08 06:17:00,
2013-03-07 22:28:00,47.5,42.9,29.87,NNW,348,0.0,0.0,84,0.01,,---,0.02,VWS V14.01,2013-03-08 06:28:00,
2013-03-07 22:33:00,47.6,43.0,29.89,NNW,348,0.0,0.0,84,0.01,,---,0.02,VWS V14.01,2013-03-08 06:33:00,
2013-03-07 22:38:00,47.6,43.3,29.86,NNW,348,0.0,0.0,85,0.01,,---,0.02,VWS V14.01,2013-03-08 06:38:00,
2013-03-07 22:43:00,47.5,43.2,29.84,NNW,348,2.0,2.0,85,0.02,,---,0.03,VWS V14.01,2013-03-08 06:43:00,
2013-03-07 22:48:00,47.6,43.3,29.84,NNW,348,0.0,2.0,85,0.02,,---,0.03,VWS V14.01,2013-03-08 06:48:00,
2013-03-07 22:53:00,47.4,43.1,29.86,NNW,348,3.0,4.0,85,0.02,,---,0.03,VWS V14.01,2013-03-08 06:53:00,
2013-03-07 22:59:00,47.3,43.0,29.86,NNW,348,0.0,4.0,85,0.02,,---,0.03,VWS V14.01,2013-03-08 06:59:00,
2013-03-07 23:04:00,47.3,43.0,29.84,NNW,348,2.0,2.0,85,0.01,,---,0.03,VWS V14.01,2013-03-08 07:04:00,
2013-03-07 23:09:00,47.2,42.9,29.84,NNW,348,0.0,2.0,85,0.01,,---,0.03,VWS V14.01,2013-03-08 07:09:00,
2013-03-07 23:14:00,47.1,43.1,29.88,NNW,348,2.0,3.0,86,0.01,,---,0.03,VWS V14.01,2013-03-08 07:14:00,
2013-03-07 23:19:00,47.0,43.0,29.87,NNW,348,4.0,5.0,86,0.01,,---,0.03,VWS V14.01,2013-03-08 07:19:00,
2013-03-07 23:24:00,46.9,42.9,29.85,NNW,348,3.0,6.0,86,0.01,,---,0.03,VWS V14.01,2013-03-08 07:24:00,
2013-03-07 23:29:00,46.8,42.8,29.84,NNW,348,1.0,6.0,86,0.01,,---,0.03,VWS V14.01,2013-03-08 07:29:00,
2013-03-07 23:34:00,46.8,43.1,29.84,NNW,348,2.0,5.0,87,0.01,,---,0.03,VWS V14.01,2013-03-08 07:34:00,
2013-03-07 23:39:00,46.8,42.8,29.84,NNW,348,1.0,5.0,86,0.01,,---,0.03,VWS V14.01,2013-03-08 07:39:00,
2013-03-07 23:44:00,46.9,42.9,29.83,NNW,348,3.0,5.0,86,0.01,,---,0.03,VWS V14.01,2013-03-08 07:44:00,
2013-03-07 23:49:00,46.9,42.9,29.85,NNW,348,1.0,5.0,86,0.01,,---,0.03,VWS V14.01,2013-03-08 07:49:00,
2013-03-07 23:54:00,46.7,42.7,29.84,NNW,348,3.0,5.0,86,0.01,,---,0.03,VWS V14.01,2013-03-08 07:54:00,
2013-03-07 23:59:00,46.8,42.8,29.83,NNW,348,0.0,5.0,86,0.01,,---,0.03,VWS V14.01,2013-03-08 07:59:00,